Regional Weather Roundup
Issued by NWS

Home | Current Version | Previous Version | Graphics & Text | Print | Product List | Glossary On
Versions: 1 2 3 4 5 6 7 8 9 10 11 12 13 14 15 16 17 18 19 20 21 22 23 24 25 26 27 28 29 30 31 32 33 34 35 36 37 38 39 40 41 42 43 44 45 46 47 48 49 50
000
ASUS43 KDTX 160710
RWRMI
MICHIGAN HOURLY REGIONAL WEATHER ROUNDUP
NATIONAL WEATHER SERVICE DETROIT/PONTIAC MI
200 AM EST TUE JAN 16 2018

NOTE: "FAIR" INDICATES FEW OR NO CLOUDS BELOW 12,000 FEET WITH NO
SIGNIFICANT WEATHER AND/OR OBSTRUCTION TO VISIBILITY.

MIZ047>049-052>055-059>063-066>070-074>076-081>083-160800-
SOUTHEAST LOWER MICHIGAN

CITY           SKY/WX    TMP DP  RH WIND       PRES   REMARKS
ADRIAN         CLOUDY    13   8  81 W8        30.31R WCI   2
ALMA           FLURRIES   6   5  94 N5        30.29S WCI  -2
ANN ARBOR      CLOUDY    18  17  96 SW6       30.27R WCI  10
BAD AXE        FLURRIES  10   8  91 CALM      30.28R
CARO           FAIR       8   6  91 CALM      30.28R
DETROIT CITY   CLOUDY    22  18  85 W7        30.28S WCI  13
DETROIT        CLOUDY    16  13  88 S9        30.30R WCI   4
FLINT          CLOUDY     7   6  96 CALM      30.28R FOG
GROSSE ILE     FAIR      17  14  86 SW8       30.29R WCI   7
HILLSDALE      FLURRIES  12   7  79 W6        30.26R WCI   3
HOWELL         FLURRIES  18  17  95 W5        30.25S WCI  11

CITY           SKY/WX    TMP DP  RH WIND       PRES   REMARKS
JACKSON        CLOUDY    10   6  84 SW7       30.28R WCI  -1
LAMBERTVILLE   LGT SNOW  14  10  83 W8        30.32R WCI   3
LANSING        LGT SNOW  17  15  92 NE3       30.27S FOG
LAPEER         FOG        4   0  85 CALM      30.27R VSB 3/4
MASON          CLOUDY    18  12  78 SW3       30.26S
MONROE         CLOUDY    15  10  83 SW10      30.31R WCI   2
MT. CLEMENS    FLURRIES  19  19 100 CALM      30.27R
PONTIAC        CLOUDY    17  16  95 CALM      30.24S FOG
PORT HOPE        N/A     19  15  84 W5        30.27S WCI  12
PORT HURON     CLOUDY    10   9  92 CALM      30.29R
TRI CITIES     MOCLDY    11  10  96 N6        30.30R FOG     WCI   1
MIDLAND        FLURRIES   5   1  85 CALM      30.30R
TROY           LGT SNOW  22  20  93 CALM      30.29R
SAGINAW HB     LGT SNOW   9   7  92 CALM      30.29S
$$
MIZ043>046-050>051-056>058-064>065-071>073-077>080-160800-
SOUTHWEST LOWER MICHIGAN

CITY           SKY/WX    TMP DP  RH WIND       PRES   REMARKS
BATTLE CREEK   CLOUDY    10   6  84 SW8       30.28R WCI  -2
BENTON HARBOR  LGT SNOW  10   4  76 S9        30.31S WCI  -3
BIG RAPIDS     CLOUDY    11   7  84 CALM      30.28R
COLDWATER      MOCLDY     9   5  83 SW14      30.29R WCI  -7
FREMONT        CLOUDY    11   7  82 N3        30.29S
HOLLAND        LGT SNOW  20  17  88 S9        30.27R FOG     WCI   9
GRAND RAPIDS   LGT SNOW  16  13  88 NE5       30.28R FOG     WCI   9
IONIA          LGT SNOW  14  12  92 NE3       30.27R
KALAMAZOO      MOCLDY    10   5  80 SW9       30.29S WCI  -3
LUDINGTON      CLOUDY    11  10  92 NE3       30.32S
MARSHALL       FLURRIES  11   8  85 SW7       30.28R WCI   1
MOUNT PLEASANT LGT SNOW   8   4  85 CALM      30.29R
MUSKEGON       CLOUDY    13   8  81 N7        30.30S WCI   3
SOUTH HAVEN    LGT SNOW  13   9  82 S8        30.29S WCI   2
$$
MIZ016>042-160800-
NORTHERN LOWER MICHIGAN

CITY           SKY/WX    TMP DP  RH WIND       PRES   REMARKS
ALPENA         LGT SNOW  19  16  88 NE13      30.32S FOG     WCI   6
BEAVER ISLAND  FAIR      14  10  84 NE7       30.38F WCI   4
BELLAIRE       FAIR      15  13  94 NW3       30.35R
CADILLAC       FLURRIES   1  -2  86 CALM      30.25S
CHARLEVOIX     CLOUDY    18  13  82 NE7       30.38F WCI   8
FRANKFORT      FLURRIES  10   7  88 CALM      30.33F
GAYLORD        LGT SNOW  13  12  96 NE9       30.27S FOG     WCI   1
GRAYLING       LGT SNOW  15  11  85 N10       30.28S WCI   2
HARBOR SPRINGS MOCLDY    15  11  85 NE8       30.34F WCI   4
HOUGHTON LAKE  LGT SNOW   4   0  83 CALM      30.26F FOG
MANISTEE       FLURRIES   2   0  91 CALM      30.33S
OSCODA         LGT SNOW  17  14  86 NW6       30.28S WCI   9
PELLSTON       LGT SNOW   8   6  92 N8        30.37S FOG     WCI  -4
ROGERS CITY    LGT SNOW  18  13  84 NE10      30.36R WCI   6
TRAVERSE CITY  FAIR      19  14  81 NE6       30.32S WCI  11
$$
MIZ007>008-015-160800-
EASTERN UPPER MICHIGAN

CITY           SKY/WX    TMP DP  RH WIND       PRES   REMARKS
KINROSS        FLURRIES  10   7  87 N5        30.38F WCI   2
MACKINAC ISLAN LGT SNOW  13   9  83 NE10G17   30.37S WCI   0
NEWBERRY       FLURRIES   9   8  97 N3        30.38S
S. S. MARIE    FAIR      13   6  74 NE3       30.39S
MUNISING         N/A      5   3  91 S5        30.43R WCI  -4
$$
MIZ004>006-011>014-085-160800-
CENTRAL UPPER MICHIGAN

CITY           SKY/WX    TMP DP  RH WIND       PRES   REMARKS
MANISTIQUE     FAIR       6   5  94 N6        30.39F WCI  -5
ESCANABA       MOCLDY    11   8  88 VRB5      30.41S WCI   3
MENOMINEE      FLURRIES  14  11  87 N12G17    30.39R WCI   0
SAWYER-GWINN   LGT SNOW   7   4  88 NW5       30.39R WCI  -2
$$
MIZ001>003-009>011-084-160800-
WESTERN UPPER MICHIGAN

CITY           SKY/WX    TMP DP  RH WIND       PRES   REMARKS
IRON MOUNTAIN  FAIR      -4  -9  79 CALM      30.37S
HOUGHTON       CLOUDY    19  11  70 NE8       30.43S WCI   9
COPPER HARBOR    N/A     22  17  81 E14G21    30.47R WCI   9
IRONWOOD       LGT SNOW   1  -1  91 W3        30.45S VSB 1
$$

ABBREVIATIONS USED IN REMARKS
   TC - TEMPERATURE IN CELSIUS
  WCI - WIND CHILL INDEX
   HX - HEAT INDEX
  VSB - VISIBILITY




USA.gov is the U.S. government's official web portal to all federal, state and local government web resources and services.